Location: Gu�tanj
(46.5431°N, 14.9692°E)
Time: 23:30:40
(UTC+00:00)

X-37B - Pass Details

Date: 02 October 2021
Orbit: 385 x 389 km, 45.0° (Epoch: 17 October)

Event Time Altitude Azimuth Distance (km) Brightness Sun altitude
Exits shadow 03:20:32 40° 189° (S) 586 1.2 -17.8°
Drops below altitude 10° 03:23:24 10° 126° (SE) 1,410 4.0 -17.3°
Sets 03:25:32 0° 119° (ESE) 2,264 5.2 -17.0°
